Location: Montbazon
(47.2835°N, 0.6999°E)
Time: 06:59:32
(UTC+00:00)

Okean 1-7 - Pass Details

Date: 08 November 2025
Orbit: 566 x 589 km, 82.5° (Epoch: 10 December)

Event Time Altitude Azimuth Distance (km) Brightness Sun altitude
Exits shadow 04:12:30 32° 23° (NNE) 1,019 4.3 -27.1°
Drops below altitude 10° 04:14:53 10° 14° (NNE) 1,923 5.8 -26.7°
Sets 04:17:06 0° 12° (NNE) 2,832 6.6 -26.3°
